Temperature
14 15 14 15 14 14 14 14 14 14 14 15 15 15 15 15 15 15 15 15 15 15 15 14 14 15 15 15 15 15 15 15 15 15 15 15 15 15 15 15 15 15 15
14 14 14 14 14 14 14 14 14 14 14 14 15 15 15 14 15 15 15 15 15 15 14 14 14 14 15 15 15 15 15 15 14 14 14 14 14 14 14 14 14 14 14
14 14 14 14 14 14 14 14 14 14 14 14 14 14 14 14 14 14 14 14 14 15 15 14 14 14 14 14 14 14 14 14 14 14 14 14 14 14 14 14 14 14 14
14 14 14 14 14 14 14 14 14 14 14 14 14 14 14 14 14 14 14 14 14 14 14 14 14 14 14 14 14 14 14 14 13 13 13 14 14 14 14 14 14 14 14
13 14 14 14 14 14 14 14 14 14 14 14 14 14 14 14 14 14 14 14 14 14 14 14 14 14 14 14 14 14 14 13 13 13 13 13 13 13 13 14 14 13 14
13 13 14 14 14 14 14 14 14 14 14 14 14 14 13 13 13 13 13 13 13 14 14 14 14 14 14 14 14 13 13 13 13 13 13 13 13 13 13 13 13 13 13
13 13 13 13 13 13 13 13 13 13 13 13 13 13 13 13 13 13 13 13 13 13 13 13 13 13 13 13 13 13 13 13 13 13 13 13 13 13 13 13 13 13 13
13 13 13 13 13 13 13 13 13 13 13 13 13 13 13 13 13 13 13 13 13 13 13 13 13 13 13 13 13 13 13 13 12 12 12 12 12 12 12 12 12 12 12
12 13 13 13 13 13 13 13 13 13 13 13 13 13 13 13 13 12 12 12 13 13 13 13 13 13 13 13 13 12 12 12 12 12 12 12 12 12 12 12 12 12 12
12 12 12 12 12 12 12 12 12 12 12 12 13 13 12 12 12 12 12 12 12 12 12 12 12 12 12 12 12 12 12 12 12 12 12 12 12 12 12 12 12 12 12
11 12 12 12 12 12 12 12 12 12 12 12 12 12 12 12 12 12 12 12 12 12 12 12 12 12 12 12 12 12 12 12 12 12 12 11 11 11 11 11 12 12 12
11 11 11 12 12 12 12 12 12 12 12 12 12 12 12 12 12 12 11 11 11 11 11 11 11 11 11 11 11 11 11 12 12 11 11 11 11 11 11 11 11 11 11
11 11 11 11 11 11 11 11 11 11 11 11 11 11 11 11 11 11 11 11 11 11 11 11 11 11 11 11 11 11 11 11 11 11 11 11 11 11 11 11 11 11 11
11 11 11 11 11 11 11 11 11 11 11 11 11 11 11 11 11 11 11 11 11 11 11 11 10 10 11 10 11 10 10 11 11 11 11 11 11 11 11 11 10 11 11
10 10 10 10 10 10 10 10 10 10 10 10 10 10 10 10 10 10 10 10 11 10 10 10 10 10 10 10 10 10 10 10 10 10 10 10 10 10 10 10 10 10 10
10 10 10 10 10 10 10 10 10 10 10 10 10 10 10 10 10 10 10 10 10 10 10 10 10 10 10 10 10 10 10 10 10 10 10 10 10 10 10 10 10 10 10
9 10 10 10 10 10 10 10 9 9 9 9 9 9 9 9 9 9 9 9 9 9 10 10 9 9 9 9 9 9 9 9 9 9 9 9 10 10 10 10 10 10 10
9 9 9 9 9 9 9 9 9 9 9 9 9 9 9 9 9 9 9 9 9 9 9 9 9 9 9 9 9 9 9 9 9 9 9 9 9 9 9 9 9 9 9
8 9 9 9 9 9 9 9 9 9 9 9 9 9 9 9 9 9 9 9 9 8 8 8 8 9 9 8 8 8 8 8 8 8 8 8 9 9 9 9 9 9 9
8 8 8 8 8 8 8 8 8 8 8 8 8 8 8 8 8 8 8 8 8 8 8 8 8 8 8 8 8 8 8 8 8 8 8 8 8 8 8 9 9 9 8
8 8 8 8 8 8 8 8 8 8 8 8 8 8 8 8 8 8 8 8 8 8 8 8 8 8 8 8 7 7 7 7 7 8 8 8 8 8 8 8 8 8 8
7 7 7 7 7 7 7 7 7 7 7 7 7 7 7 7 7 7 7 7 7 7 7 7 7 7 7 7 7 7 6 6 7 7 7 7 7 7 7 7 7 7 7
7 7 7 7 7 7 7 7 7 7 7 7 7 7 7 7 7 7 7 7 7 7 7 7 7 7 7 7 7 7 6 6 6 6 7 7 7 7 7 7 7 7 7
6 6 6 6 6 6 6 6 6 6 6 6 6 6 6 6 6 6 6 6 6 6 6 6 6 6 6 6 6 6 6 6 6 6 6 6 6 6 7 7 7 7 7
6 6 6 5 5 5 5 5 5 6 6 6 5 5 5 5 5 5 5 5 5 5 6 6 5 6 5 5 5 5 5 6 6 6 5 6 6 6 6 6 6 6 6
5 5 5 5 5 5 5 5 5 5 5 5 5 5 5 5 5 5 5 5 5 5 5 5 5 5 5 5 5 5 5 5 5 5 5 6 6 6 6 6 6 6 6
Wind_Speed
5 6 5 6 7 8 8 8 10 10 10 11 11 12 12 12 12 12 12 12 13 13 13 13 14 14 15 16 17 17 17 18 18 19 19 19 19 19 20 20 19 18 21
5 7 7 7 8 8 8 8 10 10 10 10 11 11 11 12 12 12 12 12 12 13 13 14 14 15 15 16 16 16 16 17 17 17 18 18 18 19 19 19 19 18 20
7 8 7 7 8 8 8 8 9 9 10 10 11 11 11 11 12 12 11 12 12 12 12 13 14 15 15 16 15 15 15 15 15 15 15 15 16 18 18 18 19 19 19
7 8 8 8 8 8 8 8 8 9 9 9 10 10 10 11 11 11 11 12 12 12 13 13 14 15 15 15 14 14 14 13 13 14 14 13 14 17 17 18 18 18 18
7 8 8 8 8 8 8 8 7 8 8 9 9 9 10 10 11 11 12 12 13 14 14 14 14 14 14 14 13 13 12 12 12 14 14 14 13 16 17 17 17 17 18
6 8 8 8 8 8 8 8 7 7 7 8 9 9 9 10 10 11 11 12 13 14 14 14 14 14 13 13 12 12 12 12 12 14 13 13 13 15 16 16 16 17 17
5 8 8 8 7 7 8 8 7 7 7 8 8 8 9 9 10 10 11 12 13 13 13 13 13 13 12 12 12 12 12 12 13 14 13 13 13 15 16 16 16 16 17
6 7 7 7 7 7 7 7 7 7 7 7 8 8 8 9 10 10 11 12 12 13 12 12 12 12 12 11 11 11 11 11 12 13 13 13 14 15 15 16 16 16 16
7 7 6 6 6 7 7 6 6 7 6 7 7 8 8 9 10 10 11 11 12 12 12 12 11 11 10 10 10 10 11 11 11 11 11 11 13 14 15 15 15 15 15
5 6 5 5 5 6 6 6 6 6 6 7 7 7 8 9 9 10 11 11 11 11 11 11 10 10 10 9 9 8 9 10 11 11 10 11 13 13 14 14 14 14 14
4 4 4 4 4 4 5 5 5 6 6 6 6 7 7 7 8 9 10 11 10 10 11 10 10 9 8 7 7 7 8 9 11 10 10 11 12 12 13 13 13 13 13
2 2 3 3 3 3 3 4 5 5 5 5 5 6 6 7 7 8 9 10 10 10 10 10 9 8 7 6 6 7 7 9 9 9 10 11 11 11 11 12 12 12 12
2 1 2 2 2 3 2 3 3 4 4 5 5 6 7 7 7 7 7 8 9 9 8 8 7 6 6 6 6 7 7 8 9 9 9 11 11 11 11 11 11 11 11
3 2 2 1 2 2 3 2 2 3 4 4 5 7 6 5 5 5 5 6 6 6 6 5 5 7 7 7 7 7 7 8 9 9 9 10 10 10 10 11 10 10 10
2 2 2 1 2 2 2 2 2 2 3 5 5 6 6 5 4 4 4 4 5 5 4 4 5 6 6 6 7 7 7 8 9 9 8 9 9 9 9 10 10 10 9
3 2 2 2 1 1 1 1 2 3 3 5 5 5 6 6 5 4 4 4 4 4 4 5 5 5 5 5 6 6 7 7 8 9 8 8 8 9 8 9 8 9 8
3 3 3 2 1 1 1 1 2 3 4 4 4 6 6 6 5 5 4 3 3 4 5 5 5 5 4 4 4 5 6 6 7 7 8 7 7 7 7 7 7 7 7
2 2 3 2 2 1 2 1 1 3 4 4 5 5 6 6 6 5 3 3 4 4 4 4 3 2 3 2 2 3 4 5 6 6 7 7 7 6 6 6 6 7 7
2 2 2 2 2 2 2 2 2 2 3 4 4 5 5 6 6 5 4 4 4 3 3 3 2 2 2 2 2 2 3 3 3 5 6 6 6 6 6 5 6 6 6
2 2 2 2 2 1 2 2 2 1 2 3 4 4 5 5 5 5 4 4 4 3 2 2 2 2 2 2 2 2 1 2 3 3 4 5 5 6 6 5 5 4 4
2 2 2 2 2 2 2 2 2 2 2 2 3 5 5 5 5 5 3 3 3 3 2 3 2 3 2 2 2 1 1 1 1 1 3 3 4 4 4 5 5 4 3
3 2 2 2 2 2 2 2 2 2 2 3 3 4 5 5 5 4 4 3 3 2 3 3 3 2 2 2 2 2 0 1 1 1 1 2 2 3 3 3 4 4 4
3 3 2 2 2 2 2 2 2 1 2 2 2 3 3 5 5 4 4 4 3 3 3 3 3 2 3 1 1 2 2 2 1 1 1 1 1 2 2 2 3 4 4
3 2 2 2 2 3 3 3 3 3 3 3 3 3 4 5 5 5 5 4 4 3 3 3 2 1 3 3 1 1 1 2 2 1 1 1 2 2 3 2 3 4 5
3 3 2 2 3 3 3 3 3 2 3 3 4 4 4 4 5 5 6 5 4 3 3 3 2 2 2 3 2 1 0 0 1 2 2 2 2 3 3 4 4 4 6
3 3 3 3 2 3 3 3 3 3 4 4 4 5 4 3 3 4 5 5 4 4 4 4 3 3 3 3 2 2 2 1 2 1 2 2 2 3 3 4 5 5 6
Wind_Direction
97 96 102 97 95 90 88 91 92 88 84 81 77 74 72 69 69 69 69 68 69 72 76 79 80 84 85 84 83 83 83 83 83 82 80 78 80 81 81 81 81 80 82
99 105 113 108 103 98 94 95 97 93 88 84 81 77 74 71 69 69 69 69 70 72 77 81 82 82 86 86 84 84 83 84 84 83 81 79 81 82 82 81 81 83 83
94 103 112 109 106 102 99 101 101 97 92 87 83 80 77 74 71 70 69 69 68 70 78 83 83 81 86 87 85 85 84 85 86 84 82 81 83 86 86 85 84 85 85
95 105 108 105 105 104 101 102 104 102 97 93 89 84 81 78 75 72 71 70 68 74 82 87 85 84 84 88 87 83 83 84 84 82 82 82 85 90 90 89 88 87 87
89 100 106 106 104 104 102 102 104 107 102 98 94 89 85 82 80 77 75 72 71 77 86 89 87 85 82 83 85 82 79 79 80 83 82 81 85 93 92 91 89 89 89
87 100 108 111 108 108 108 104 102 105 107 104 99 95 90 88 85 84 80 78 75 77 83 87 88 87 83 79 80 80 79 75 76 82 82 84 87 94 93 92 91 91 91
83 93 114 113 111 108 112 112 109 103 107 108 106 103 98 95 92 89 86 83 80 80 82 85 88 89 84 80 75 76 74 72 78 81 78 82 89 93 94 92 93 92 91
77 86 108 119 113 107 108 110 114 108 105 108 108 107 102 99 96 93 92 89 87 84 85 86 87 88 84 81 73 73 74 74 80 84 82 85 91 92 93 92 91 90 89
81 83 91 107 115 112 110 109 113 112 109 108 110 108 105 104 103 100 95 92 91 89 86 87 89 89 86 82 76 71 74 72 77 83 87 89 94 93 92 91 90 89 88
79 75 82 84 99 107 111 113 113 117 117 113 111 109 109 108 107 104 98 95 93 90 88 87 90 91 88 85 81 77 77 77 81 80 84 93 98 96 94 93 91 88 88
74 75 71 71 77 101 117 122 121 125 125 121 115 106 103 104 106 106 104 101 96 92 90 89 89 91 86 85 81 82 83 83 86 82 86 97 100 98 98 95 95 93 92
91 72 69 63 64 85 115 124 124 125 125 117 109 105 100 98 103 107 107 106 101 95 93 91 91 87 78 74 72 79 85 87 89 87 92 100 102 102 100 99 97 96 96
132 97 70 63 78 74 83 110 108 110 114 106 95 100 105 100 100 101 103 100 100 97 93 94 85 75 72 69 66 69 77 84 89 91 96 99 101 101 102 101 100 100 98
149 143 101 61 79 71 76 103 110 110 110 107 100 99 99 95 94 99 103 103 98 95 93 90 79 75 70 65 71 72 73 83 87 92 98 99 100 102 104 105 103 102 104
161 146 128 81 83 80 74 91 108 106 118 118 112 112 107 105 104 96 100 103 102 103 99 90 85 82 75 68 73 75 77 84 89 91 94 98 100 105 108 107 105 104 105
173 168 144 123 83 89 95 72 110 117 119 124 120 119 115 114 113 110 100 91 98 102 99 96 89 86 81 81 75 75 76 84 93 95 93 95 102 109 111 113 112 109 103
173 164 151 155 137 133 126 92 110 116 122 124 125 130 122 115 116 114 114 101 95 110 110 104 94 92 86 79 72 74 77 80 92 95 98 97 100 109 116 114 114 114 110
149 155 158 157 156 149 126 120 98 118 121 124 128 131 127 125 123 116 117 114 102 107 118 118 111 97 88 77 72 69 78 78 83 93 98 101 105 108 116 116 114 113 112
157 163 158 152 161 162 139 131 113 114 121 126 128 129 131 132 132 125 121 121 120 120 119 120 110 111 106 91 80 73 69 77 84 95 93 98 108 114 115 118 119 119 118
144 154 154 152 149 146 134 133 110 106 122 124 125 125 132 134 132 125 125 129 133 131 120 117 119 106 109 105 86 70 68 80 82 91 100 97 99 111 117 121 121 126 135
143 154 161 154 155 148 159 167 166 186 166 146 125 130 137 137 138 130 127 140 143 136 138 132 118 122 115 105 92 64 22 64 78 109 113 111 108 114 121 123 126 132 141
173 176 166 173 169 172 186 184 171 170 166 153 132 134 143 142 143 147 137 148 150 137 131 128 126 129 139 140 131 124 121 306 292 218 140 150 146 131 139 141 141 144 151
177 186 191 182 175 175 168 156 136 130 142 146 160 164 156 154 150 150 144 147 150 145 153 152 156 153 167 204 177 151 161 201 211 252 225 192 176 173 172 162 160 162 159
185 178 186 179 172 175 167 168 168 183 184 183 180 177 171 169 162 158 155 159 161 158 162 175 169 170 169 187 233 269 213 153 158 196 266 240 222 217 203 188 189 184 174
163 162 180 172 169 172 176 179 181 194 190 166 166 172 176 172 172 171 167 168 171 172 171 173 177 173 182 192 195 218 277 324 169 175 215 229 244 240 220 203 204 197 187
153 155 166 171 175 169 172 185 183 196 196 173 173 182 185 181 180 183 184 179 180 180 181 185 190 189 193 198 201 187 181 186 191 187 206 221 236 236 233 211 203 198 191
Height
1526 1526 1527 1529 1529 1530 1531 1532 1533 1533 1534 1535 1535 1536 1536 1536 1536 1536 1536 1536 1536 1535 1536 1536 1537 1538 1540 1540 1541 1542 1543 1543 1544 1545 1545 1546 1546 1547 1548 1548 1549 1549 1549
1525 1526 1527 1528 1530 1530 1531 1532 1533 1534 1535 1536 1536 1537 1537 1537 1537 1537 1537 1537 1537 1537 1537 1538 1539 1540 1541 1542 1543 1544 1545 1546 1546 1547 1547 1548 1549 1549 1550 1551 1551 1551 1552
1525 1526 1527 1528 1530 1531 1532 1533 1534 1535 1536 1536 1537 1537 1538 1538 1538 1538 1538 1538 1537 1536 1536 1538 1540 1541 1543 1544 1545 1546 1547 1548 1548 1549 1550 1550 1551 1552 1552 1553 1553 1554 1554
1525 1526 1527 1528 1530 1531 1532 1533 1534 1535 1536 1537 1537 1538 1538 1539 1539 1539 1539 1538 1536 1534 1534 1537 1541 1543 1544 1545 1547 1548 1549 1550 1550 1551 1552 1552 1553 1554 1555 1555 1555 1556 1556
1525 1526 1527 1528 1529 1531 1532 1533 1534 1535 1536 1537 1538 1539 1539 1539 1540 1540 1540 1540 1537 1535 1535 1539 1542 1544 1545 1547 1548 1550 1551 1551 1552 1553 1554 1555 1555 1556 1556 1557 1557 1558 1558
1525 1526 1527 1528 1529 1530 1532 1533 1534 1535 1536 1537 1538 1539 1540 1540 1540 1541 1541 1541 1540 1539 1540 1541 1543 1545 1547 1548 1550 1551 1552 1553 1554 1554 1555 1556 1557 1558 1558 1559 1559 1560 1560
1524 1525 1527 1528 1529 1530 1531 1533 1534 1535 1536 1537 1538 1539 1540 1540 1541 1541 1541 1542 1542 1542 1543 1543 1545 1547 1548 1549 1551 1552 1553 1554 1555 1556 1557 1558 1559 1559 1560 1560 1561 1561 1562
1524 1525 1526 1528 1529 1530 1531 1532 1534 1535 1536 1537 1538 1539 1540 1541 1541 1542 1542 1543 1543 1544 1544 1545 1546 1547 1549 1550 1552 1553 1554 1555 1556 1557 1558 1559 1560 1560 1561 1561 1562 1562 1563
1523 1524 1526 1527 1528 1530 1531 1532 1533 1534 1536 1537 1538 1539 1540 1541 1541 1542 1543 1543 1544 1544 1545 1546 1547 1548 1549 1551 1552 1553 1554 1556 1556 1558 1559 1560 1561 1561 1562 1563 1563 1563 1564
1523 1524 1525 1526 1527 1529 1530 1531 1532 1533 1535 1536 1537 1538 1539 1540 1541 1542 1543 1543 1544 1544 1545 1546 1547 1548 1550 1551 1552 1554 1555 1556 1557 1558 1559 1560 1561 1562 1562 1563 1564 1564 1565
1522 1523 1524 1525 1526 1527 1529 1530 1531 1533 1534 1535 1536 1538 1539 1539 1541 1541 1542 1543 1544 1544 1545 1546 1548 1549 1550 1551 1553 1554 1554 1555 1557 1558 1559 1561 1562 1562 1563 1564 1564 1565 1566
1520 1522 1523 1524 1525 1526 1527 1528 1530 1531 1533 1534 1535 1536 1537 1538 1540 1540 1541 1542 1543 1544 1545 1546 1548 1549 1550 1551 1552 1553 1554 1555 1556 1557 1559 1560 1561 1562 1563 1564 1564 1565 1566
1519 1520 1521 1522 1523 1524 1525 1527 1528 1529 1531 1533 1533 1535 1536 1537 1538 1539 1540 1541 1542 1543 1544 1546 1547 1549 1550 1551 1552 1553 1554 1555 1556 1557 1558 1560 1561 1562 1562 1563 1564 1565 1566
1517 1518 1520 1521 1522 1523 1524 1525 1526 1527 1529 1530 1532 1533 1534 1536 1536 1538 1539 1540 1541 1542 1544 1545 1546 1548 1549 1550 1551 1552 1553 1554 1555 1556 1557 1559 1560 1561 1562 1563 1564 1565 1566
1515 1516 1518 1519 1520 1521 1522 1523 1524 1526 1527 1529 1530 1532 1533 1534 1535 1536 1538 1539 1540 1542 1543 1544 1545 1546 1548 1549 1550 1552 1553 1554 1554 1555 1556 1558 1559 1561 1562 1563 1563 1564 1565
1512 1514 1515 1516 1517 1518 1519 1520 1522 1523 1525 1527 1528 1530 1531 1533 1534 1535 1536 1538 1539 1540 1542 1543 1544 1545 1547 1548 1549 1551 1552 1553 1553 1554 1556 1557 1558 1559 1561 1562 1563 1564 1564
1509 1511 1512 1514 1515 1516 1517 1518 1520 1521 1522 1524 1526 1528 1529 1531 1532 1533 1534 1536 1537 1539 1540 1541 1543 1544 1545 1546 1548 1549 1550 1551 1552 1553 1555 1556 1557 1558 1560 1561 1562 1563 1564
1506 1508 1510 1511 1512 1514 1515 1516 1517 1519 1520 1521 1523 1525 1527 1528 1530 1532 1533 1534 1535 1537 1538 1540 1541 1542 1543 1544 1546 1547 1549 1550 1551 1552 1553 1554 1556 1557 1558 1560 1561 1561 1562
1504 1505 1506 1508 1509 1510 1512 1513 1515 1516 1517 1519 1521 1522 1524 1526 1528 1529 1531 1532 1533 1535 1536 1538 1539 1540 1541 1542 1544 1545 1547 1548 1549 1550 1551 1553 1554 1555 1557 1558 1559 1560 1561
1501 1502 1503 1505 1506 1507 1509 1510 1511 1513 1514 1516 1518 1520 1521 1523 1525 1526 1528 1530 1531 1533 1534 1535 1537 1538 1539 1540 1542 1543 1545 1546 1547 1548 1549 1551 1552 1553 1554 1556 1557 1558 1559
1497 1499 1500 1501 1503 1504 1505 1507 1508 1510 1511 1513 1514 1516 1518 1520 1521 1523 1524 1527 1528 1530 1531 1533 1534 1535 1537 1538 1539 1541 1542 1543 1545 1546 1547 1548 1550 1551 1552 1553 1554 1555 1556
1494 1495 1496 1498 1500 1501 1502 1504 1506 1507 1508 1510 1512 1514 1515 1517 1519 1520 1521 1523 1525 1526 1528 1530 1531 1532 1533 1535 1537 1538 1540 1542 1542 1543 1544 1546 1547 1548 1549 1550 1551 1552 1553
1490 1492 1493 1495 1496 1498 1499 1501 1503 1504 1506 1507 1509 1511 1512 1514 1515 1517 1518 1520 1521 1523 1524 1526 1528 1529 1530 1532 1534 1536 1536 1537 1539 1540 1541 1542 1544 1545 1546 1547 1548 1549 1550
1487 1489 1490 1492 1493 1495 1496 1497 1498 1499 1501 1502 1505 1507 1509 1511 1512 1513 1515 1516 1518 1519 1521 1523 1524 1526 1527 1528 1530 1532 1534 1534 1535 1536 1538 1538 1540 1541 1542 1543 1545 1546 1547
1485 1486 1487 1488 1490 1491 1492 1494 1495 1496 1498 1500 1502 1504 1506 1507 1508 1510 1511 1513 1514 1516 1517 1519 1521 1522 1524 1525 1526 1528 1529 1530 1532 1533 1533 1534 1536 1537 1538 1540 1541 1542 1543
1482 1483 1484 1485 1486 1488 1489 1490 1492 1493 1494 1496 1497 1499 1501 1503 1504 1506 1507 1509 1511 1512 1513 1515 1517 1518 1520 1522 1523 1524 1525 1526 1527 1529 1529 1530 1531 1532 1534 1535 1537 1538 1539